Tracking 29892 objects as of 21-Nov-2024
HD Live streaming from Space Station
objects crossing your sky now

THORAD AGENA D DEB

Track THORAD AGENA D DEB now!
10-day predictions


NORAD ID: 4169
Int'l Code: 1969-082AM
Perigee: 675.1 km
Apogee: 719.8 km
Inclination: 70.2 °
Period: 98.6 minutes
Semi major axis: 7068 km
RCS: 0.0579 m2 (small)
Launch date: September 30, 1969
Source: United States (US)
Launch site: AIR FORCE WESTERN TEST RANGE (AFWTR)

Note: This is SATELLITE DEBRIS
Your satellite tracking list
Your tracking list is empty




NASA's NSSDC Master Catalog

Two Line Element Set (TLE):
1 04169U 69082AM  24325.75242546  .00005649  00000-0  11579-2 0  9995
2 04169  70.1859 310.3931 0031598 164.1143 196.0997 14.60882416885651
Source of the keplerian elements: AFSPC